Altus AFB, OK

8:15 PM CDT on October 19, 2019 (GMT -0500)
Altus Air Force Base

Weather History for KLTS - August, 2019

Change the Weather History Date:

Friday, August 30, 2019

  Actual Average Record
Temperature  
Mean Temperature 76 °F -  
Max Temperature 82 °F 91 °F 110 °F (2011)
Min Temperature 71 °F 68 °F 58 °F (2017)
Cooling Degree Days 12    
Growing Degree Days 26 (Base 50)    
Moisture  
Dew Point 66 °F    
Average Humidity 75    
Maximum Humidity 91    
Minimum Humidity 53    
Precipitation  
Precipitation 0.00 in - - ()
Sea Level Pressure  
Sea Level Pressure 29.98 in    
Wind  
Wind Speed 10 mph ()    
Max Wind Speed 32 mph    
Max Gust Speed 43 mph    
Visibility 10.0 miles    
Events      
Averages and records for this station are not official NWS values.
T = Trace of Precipitation, MM = Missing Value Source: Averaged Metar Reports

Daily Weather History Graph

Daily Weather History Graph

Search for Another Location

Airport or City:

Astronomy

Aug. 30, 2019 Rise Set
Actual Time 7:08 AM CDT 8:06 PM CDT
Civil Twilight 6:42 AM CDT 8:32 PM CDT
Nautical Twilight 6:12 AM CDT 9:02 PM CDT
Astronomical Twilight 5:40 AM CDT 9:34 PM CDT
Moon 7:13 AM CDT (8/30) 8:43 PM CDT (8/30)
Length of Visible Light 13h 49m
Length of Day
12h 57m
New Moon, 0% of the Moon is Illuminated
Aug 30
New Moon
Sep 5
First Quarter
Sep 13
Full
Sep 21
Last Quarter
Sep 28
New

Hourly Weather History & Observations

Time (CDT) Temp. Heat Index Dew Point Humidity Pressure Visibility Wind Dir Wind Speed Gust Speed Precip Events Conditions
12:56 AM 74.1 °F - 68.9 °F 84% 29.92 in 10.0 mi SE 8.1 mph - N/A   Clear
1:56 AM 74.1 °F - 69.3 °F 85% 29.92 in 10.0 mi SE 8.1 mph - N/A   Clear
2:56 AM 74.8 °F - 69.3 °F 83% 29.91 in 10.0 mi SE 9.2 mph - N/A   Clear
3:56 AM 73.6 °F - 69.1 °F 86% 29.91 in 10.0 mi SE 10.4 mph - N/A   Partly Cloudy
4:56 AM 73.0 °F - 69.3 °F 88% 29.91 in 10.0 mi SE 8.1 mph - N/A   Clear
5:56 AM 72.9 °F - 68.7 °F 87% 29.92 in 10.0 mi SE 9.2 mph - N/A   Partly Cloudy
6:56 AM 71.6 °F - 68.7 °F 91% 29.93 in 10.0 mi SSE 6.9 mph - N/A   Clear
7:56 AM 72.9 °F - 69.1 °F 88% 29.95 in 10.0 mi East 6.9 mph - N/A   Scattered Clouds
8:56 AM 77.5 °F - 68.5 °F 74% 29.99 in 10.0 mi East 8.1 mph - N/A   Mostly Cloudy
9:56 AM 73.6 °F - 63.5 °F 71% 30.07 in 10.0 mi NE 32.2 mph 39.1 mph N/A   Mostly Cloudy
10:56 AM 75.6 °F - 64.2 °F 68% 30.05 in 10.0 mi East 23.0 mph 31.1 mph N/A   Mostly Cloudy
11:56 AM 75.7 °F - 63.5 °F 66% 30.00 in 10.0 mi ESE 27.6 mph 42.6 mph N/A   Mostly Cloudy
12:56 PM 79.3 °F - 61.2 °F 54% 30.02 in 10.0 mi ESE 18.4 mph - N/A   Mostly Cloudy
1:56 PM 82.2 °F 83.5 °F 63.3 °F 53% 30.00 in 10.0 mi SSE 13.8 mph - N/A   Partly Cloudy
2:56 PM 80.8 °F 82.0 °F 62.6 °F 54% 29.98 in 10.0 mi SSE 18.4 mph 23.0 mph N/A   Partly Cloudy
7:27 PM 78.8 °F - 62.6 °F 57% 29.96 in 10.0 mi SE 10.4 mph - N/A   Clear
7:56 PM 76.5 °F - 64.2 °F 66% 29.96 in 10.0 mi ESE 5.8 mph - N/A   Clear
8:56 PM 72.3 °F - 64.2 °F 76% 29.99 in 10.0 mi East 6.9 mph - N/A   Clear
9:56 PM 72.5 °F - 64.4 °F 76% 30.02 in 10.0 mi East 6.9 mph - N/A   Clear
10:56 PM 72.0 °F - 64.8 °F 78% 30.05 in 10.0 mi East 9.2 mph - N/A   Clear
11:56 PM 71.2 °F - 65.1 °F 81% 30.07 in 10.0 mi East 12.7 mph - N/A   Clear